Wind_Speed
2 3 3 3 3 2 2 4 5 5 6 6 6 7 8 8 8 9 9 10 10 10 11 11 11 12 12 12 13 13 14 14 14 14 14 15 15 16 16 16 17 17 18
4 4 4 4 3 4 4 4 5 6 6 7 7 8 9 9 9 10 10 10 11 11 12 12 12 13 13 13 14 14 15 14 14 14 15 16 16 17 17 18 18 19 19
6 6 6 6 5 6 5 5 6 7 7 7 8 9 10 10 11 11 11 11 11 11 12 12 13 13 13 14 15 15 15 15 15 16 16 16 17 18 18 19 19 20 20
8 8 9 8 7 7 7 7 7 7 8 9 9 10 10 11 12 12 12 12 12 13 13 14 14 14 14 15 15 16 16 16 16 17 17 17 18 19 19 19 20 21 21
11 11 10 10 9 9 9 9 9 9 10 10 11 11 12 13 13 13 13 14 14 15 15 15 15 15 16 16 17 17 17 17 18 18 19 19 19 20 20 20 21 21 22
14 13 13 13 12 12 12 11 11 12 12 13 13 14 14 14 15 15 16 15 16 16 16 16 17 18 18 18 19 18 18 19 19 19 20 20 21 21 21 21 22 22 23
17 16 16 16 15 15 15 14 14 15 15 15 16 16 16 16 16 16 17 17 17 17 17 18 19 19 20 20 20 20 20 20 20 21 21 22 22 23 23 23 23 24 24
20 19 19 19 19 18 17 17 17 17 17 17 17 17 17 17 18 18 18 18 18 19 19 19 20 20 20 21 21 21 21 21 22 22 22 23 23 23 24 24 25 26 26
22 21 21 21 20 20 19 19 19 19 19 19 20 20 20 20 20 20 20 20 20 20 21 21 22 22 23 23 23 23 23 23 23 23 23 24 24 25 25 25 26 27 27
23 23 24 24 23 22 21 21 21 21 21 21 21 22 22 22 23 23 22 22 22 23 23 23 24 24 25 25 24 24 24 25 25 25 25 25 26 26 26 26 27 28 28
25 25 25 24 24 23 22 23 24 24 24 23 23 23 23 23 24 24 24 24 24 25 25 25 25 25 26 26 26 25 26 26 26 27 27 27 27 27 28 28 29 29 29
26 26 25 25 25 25 25 25 26 26 25 25 25 25 25 25 25 25 26 26 26 26 26 26 26 26 27 27 28 28 28 28 28 29 29 28 28 28 28 29 30 30 30
27 27 26 26 26 26 27 27 27 26 26 27 27 27 26 26 26 26 26 26 26 26 26 27 27 28 28 29 29 29 29 30 30 30 29 29 29 29 29 30 30 30 30
28 28 27 27 27 27 27 27 26 27 27 28 28 28 27 27 27 27 27 27 27 28 28 28 29 29 30 30 30 30 30 30 31 30 30 30 30 30 30 30 31 31 31
29 28 28 28 28 28 27 28 28 28 28 28 28 28 29 28 28 28 28 28 29 29 29 29 30 30 31 31 31 31 31 31 31 31 31 32 32 32 32 32 32 32 32
29 29 29 29 30 30 29 28 28 29 28 29 28 29 29 29 29 29 29 29 29 30 30 30 30 31 31 32 31 31 31 31 32 32 32 32 32 32 32 32 32 32 32
30 30 30 31 30 30 30 30 29 30 30 30 29 29 29 29 30 30 31 31 30 30 31 31 31 32 32 33 32 31 32 32 32 32 32 32 32 33 33 32 31 31 31
32 31 31 32 31 31 31 32 32 31 31 30 30 30 30 30 31 31 32 31 31 31 31 32 32 32 33 33 32 32 32 33 33 33 32 32 32 32 31 31 31 31 32
32 32 32 32 32 33 33 33 33 33 32 32 32 31 31 31 31 32 33 32 32 32 32 32 32 33 33 33 32 32 33 33 33 32 31 31 31 30 30 31 31 31 31
31 31 32 33 34 34 34 34 34 34 33 33 33 32 33 33 34 34 34 34 33 33 33 33 32 33 34 33 32 33 33 32 32 31 31 30 30 30 31 32 32 31 31
31 32 32 32 33 33 34 34 34 34 33 34 33 34 35 35 35 35 35 34 33 33 33 33 33 33 33 33 33 33 33 33 32 32 31 31 31 31 32 32 32 32 31
31 31 32 32 33 33 33 34 34 34 33 34 34 35 35 35 35 35 35 35 34 34 34 34 34 34 34 33 33 33 33 33 33 32 32 32 32 31 31 32 31 31 30
31 32 33 33 33 34 34 35 34 34 34 34 35 35 35 36 36 36 35 35 35 35 35 35 34 33 33 32 33 33 33 32 32 32 31 31 31 31 31 32 31 31 30
30 31 32 33 33 34 35 34 34 33 34 34 34 34 35 35 35 35 35 35 35 35 35 34 33 33 32 33 32 32 32 31 31 32 32 32 32 32 32 31 31 31 30
30 31 32 32 33 33 32 32 32 33 33 33 34 34 35 35 35 35 35 34 34 35 34 33 33 32 32 32 32 32 32 31 32 32 32 32 32 32 32 31 30 30 30
30 31 32 32 31 31 30 30 31 31 31 32 33 34 35 35 35 35 34 34 34 34 33 32 32 32 32 32 32 32 32 32 32 32 32 32 32 31 31 30 30 30 29
Wind_Direction
332 330 323 314 322 328 333 340 341 339 340 340 340 336 330 326 328 326 321 316 313 313 312 311 310 309 309 311 313 312 311 311 310 308 306 303 303 303 304 304 304 303 303
306 311 312 313 314 312 310 312 319 323 325 329 330 328 324 321 322 322 318 315 311 311 311 311 310 309 311 312 314 313 311 310 309 307 305 303 304 304 304 304 305 304 304
294 299 302 308 306 306 303 300 304 312 320 321 318 319 319 317 316 318 318 315 313 312 312 312 311 310 310 309 309 310 309 309 308 306 305 304 303 303 304 304 307 307 307
284 289 298 299 299 298 299 298 302 306 311 314 312 309 310 311 311 310 310 312 312 311 309 309 309 308 309 309 308 308 307 306 306 305 305 304 303 302 302 303 304 305 305
280 283 288 292 292 291 294 295 296 299 304 306 307 307 307 307 307 305 303 305 308 310 308 308 309 308 308 307 307 306 305 305 306 305 303 303 303 302 302 303 305 306 306
274 276 280 283 285 287 287 289 291 293 296 298 300 300 301 304 305 304 303 303 303 304 305 306 307 308 306 306 304 303 303 304 305 305 304 303 302 302 303 304 305 306 306
270 272 275 275 276 278 280 282 285 287 288 291 293 296 299 302 303 304 304 302 300 301 303 304 306 307 307 305 304 303 303 302 303 303 303 303 303 302 303 303 304 304 305
271 273 276 274 273 273 277 281 283 285 286 290 292 293 294 296 298 298 300 297 298 298 299 299 301 303 303 303 303 303 303 303 303 301 302 302 302 302 302 302 301 302 302
273 272 272 273 275 275 276 279 282 285 288 292 293 294 295 297 299 296 295 295 296 297 297 296 297 300 302 302 302 302 303 303 303 302 301 301 301 301 301 300 300 301 302
271 271 271 273 275 277 276 277 279 282 285 288 290 291 292 294 296 297 298 297 295 295 296 296 296 297 298 301 302 301 302 302 301 301 301 301 301 302 301 300 299 298 299
271 275 273 274 275 276 279 281 280 281 283 285 287 289 289 291 293 294 295 296 296 295 294 294 295 296 297 299 300 300 300 300 300 300 300 300 301 301 300 299 298 297 298
272 275 276 276 276 278 278 280 281 282 283 285 288 288 288 290 291 291 292 294 295 295 295 294 293 295 296 297 297 297 297 297 297 298 299 300 300 301 301 301 300 299 298
271 274 275 274 275 277 278 279 279 280 282 284 286 286 287 289 290 290 291 293 292 293 294 293 292 293 293 294 295 295 296 296 298 298 299 299 298 299 299 300 301 300 299
272 273 274 274 275 276 276 277 278 279 283 284 286 285 286 287 288 290 291 292 293 292 292 292 291 292 293 293 295 295 295 296 297 298 298 298 298 297 298 298 299 299 300
273 274 272 273 275 277 277 278 280 281 283 285 285 285 284 285 286 287 289 291 292 293 294 294 292 291 291 292 293 294 295 296 296 297 297 297 297 296 297 297 298 299 300
270 272 272 273 275 277 279 278 279 282 283 286 286 287 286 284 285 287 288 290 292 292 293 293 293 294 294 293 292 293 294 295 296 297 297 297 297 297 297 297 298 299 299
269 270 271 273 274 275 275 276 278 281 283 285 286 287 287 286 286 287 288 289 289 290 290 291 293 293 295 296 293 292 292 293 295 297 297 297 297 297 297 297 297 298 299
270 270 271 272 273 273 274 275 276 278 281 283 284 285 286 286 287 287 289 288 288 289 290 291 292 294 294 295 294 293 293 293 294 296 296 296 296 297 298 298 298 298 299
269 269 269 271 272 272 274 276 277 277 279 282 282 284 286 287 288 289 290 289 289 289 290 291 292 294 294 295 295 294 294 294 294 295 295 295 296 297 297 298 298 298 299
267 268 269 270 272 273 275 277 279 279 280 280 281 283 285 285 287 288 290 289 289 289 290 290 292 294 294 294 294 295 295 294 295 296 296 295 295 296 297 299 298 297 298
267 269 272 274 275 276 277 280 280 279 279 280 281 283 284 285 286 288 289 290 290 289 289 289 291 293 294 293 293 295 295 294 294 294 294 294 295 296 298 298 297 297 298
269 271 273 275 276 277 279 280 280 281 283 282 281 282 284 285 286 288 289 289 289 290 289 289 289 290 292 292 292 293 295 295 294 293 293 294 295 296 297 296 295 295 296
270 271 273 275 276 277 278 279 281 282 282 283 283 282 283 284 285 286 287 287 287 288 288 288 289 290 291 292 292 293 294 295 294 293 294 295 295 297 297 297 295 294 295
272 273 275 276 277 279 280 280 281 281 283 283 282 282 284 285 285 286 286 287 288 288 289 289 288 288 289 290 291 292 293 295 294 294 295 295 295 295 296 296 294 294 295
275 275 276 277 278 279 282 283 281 282 283 283 282 282 284 285 286 286 286 287 288 289 289 288 288 288 289 289 289 291 292 293 293 294 294 295 295 296 297 296 294 294 296
276 276 277 279 279 281 283 283 283 284 285 284 283 284 284 285 285 285 286 286 288 288 287 287 288 289 290 292 292 291 291 292 292 293 293 293 295 296 297 295 294 294 295
Height
5896 5896 5895 5894 5893 5893 5893 5893 5892 5892 5891 5890 5889 5888 5887 5886 5885 5884 5882 5881 5880 5878 5877 5875 5873 5872 5870 5869 5867 5865 5863 5862 5860 5858 5856 5855 5853 5852 5850 5849 5847 5845 5843
5896 5895 5894 5893 5892 5893 5892 5892 5891 5891 5890 5889 5888 5887 5886 5885 5883 5882 5880 5879 5878 5876 5875 5873 5871 5869 5867 5866 5864 5862 5860 5859 5857 5855 5853 5851 5850 5848 5847 5845 5843 5841 5839
5894 5894 5893 5892 5891 5891 5890 5890 5890 5889 5888 5888 5887 5886 5884 5883 5882 5880 5879 5877 5875 5874 5872 5870 5868 5866 5864 5863 5861 5859 5857 5855 5853 5852 5850 5848 5846 5845 5843 5841 5839 5837 5835
5893 5892 5892 5891 5890 5889 5889 5888 5888 5887 5887 5886 5884 5883 5882 5880 5879 5878 5876 5875 5873 5871 5869 5867 5865 5863 5861 5859 5857 5855 5853 5852 5850 5848 5846 5844 5843 5840 5839 5837 5835 5832 5830
5891 5890 5890 5889 5888 5887 5886 5886 5885 5885 5884 5883 5882 5881 5879 5878 5876 5874 5873 5872 5870 5868 5866 5864 5862 5860 5858 5856 5854 5852 5850 5848 5846 5844 5842 5840 5838 5836 5834 5832 5830 5827 5825
5887 5887 5887 5886 5886 5885 5884 5883 5883 5882 5881 5880 5879 5878 5876 5874 5872 5871 5869 5868 5866 5865 5863 5861 5859 5856 5854 5852 5850 5847 5846 5844 5842 5840 5838 5835 5833 5831 5829 5827 5825 5822 5820
5883 5883 5883 5883 5882 5882 5881 5880 5879 5878 5877 5876 5875 5874 5872 5871 5869 5867 5865 5864 5862 5861 5859 5857 5855 5853 5850 5848 5845 5843 5841 5839 5837 5835 5833 5830 5828 5826 5824 5821 5819 5817 5815
5878 5879 5879 5878 5878 5877 5876 5875 5874 5873 5873 5872 5870 5869 5868 5866 5864 5862 5861 5859 5858 5856 5855 5853 5850 5848 5846 5843 5841 5839 5836 5834 5831 5829 5827 5825 5822 5820 5818 5815 5813 5811 5808
5873 5873 5873 5872 5872 5872 5872 5871 5870 5869 5868 5867 5866 5864 5863 5862 5860 5858 5857 5855 5853 5852 5850 5847 5845 5843 5841 5839 5836 5834 5831 5828 5826 5823 5821 5818 5816 5813 5811 5809 5806 5804 5802
5867 5867 5867 5866 5866 5866 5866 5865 5865 5864 5863 5861 5860 5859 5858 5857 5855 5853 5852 5850 5848 5846 5844 5842 5840 5838 5835 5833 5830 5828 5825 5823 5820 5817 5815 5812 5809 5807 5804 5802 5799 5797 5794
5860 5861 5860 5860 5860 5860 5860 5859 5859 5858 5856 5855 5854 5853 5852 5851 5849 5847 5846 5844 5842 5840 5838 5836 5834 5831 5829 5826 5824 5822 5819 5816 5814 5811 5808 5805 5803 5800 5797 5794 5792 5789 5787
5854 5854 5854 5854 5854 5853 5853 5853 5852 5851 5850 5849 5848 5847 5845 5844 5842 5840 5839 5837 5835 5833 5831 5829 5827 5824 5822 5820 5817 5815 5812 5809 5807 5804 5801 5798 5795 5793 5790 5786 5783 5780 5778
5847 5847 5847 5847 5846 5846 5846 5845 5844 5843 5843 5842 5841 5839 5838 5837 5835 5833 5831 5829 5827 5826 5823 5821 5819 5817 5814 5812 5810 5807 5804 5801 5799 5796 5793 5791 5788 5785 5782 5779 5776 5772 5770
5839 5839 5839 5839 5839 5839 5838 5837 5836 5836 5835 5834 5833 5831 5830 5829 5827 5825 5823 5822 5820 5818 5815 5813 5811 5809 5807 5804 5802 5799 5796 5793 5790 5788 5785 5782 5780 5777 5774 5771 5768 5765 5762
5831 5832 5832 5832 5832 5831 5830 5830 5829 5828 5827 5826 5825 5823 5822 5821 5820 5818 5815 5814 5812 5809 5807 5805 5803 5800 5798 5795 5793 5790 5788 5785 5782 5779 5777 5774 5771 5768 5765 5762 5759 5756 5753
5824 5824 5824 5824 5824 5824 5823 5823 5822 5821 5819 5818 5816 5815 5813 5812 5811 5809 5807 5805 5803 5801 5799 5796 5794 5792 5789 5786 5783 5781 5779 5776 5773 5770 5768 5765 5762 5759 5756 5753 5750 5747 5744
5815 5815 5816 5816 5816 5815 5815 5815 5814 5813 5811 5810 5808 5807 5805 5804 5802 5800 5798 5796 5794 5792 5790 5787 5785 5782 5780 5777 5774 5772 5769 5767 5764 5761 5758 5755 5753 5750 5747 5744 5741 5738 5735
5805 5806 5807 5807 5806 5806 5806 5805 5805 5804 5803 5801 5800 5798 5796 5795 5793 5791 5789 5787 5785 5783 5781 5778 5776 5773 5770 5767 5764 5762 5759 5757 5754 5751 5749 5746 5743 5740 5738 5735 5732 5729 5726
5796 5796 5797 5797 5797 5797 5796 5795 5794 5794 5793 5792 5790 5789 5787 5786 5784 5782 5780 5777 5775 5773 5771 5769 5766 5763 5761 5758 5755 5752 5750 5747 5744 5742 5739 5737 5734 5732 5729 5726 5723 5720 5717
5786 5787 5787 5787 5787 5786 5786 5785 5785 5783 5783 5782 5780 5779 5778 5776 5774 5772 5770 5767 5766 5764 5761 5759 5756 5754 5751 5748 5746 5743 5740 5738 5735 5732 5730 5728 5725 5723 5720 5717 5714 5711 5709
5776 5777 5777 5777 5777 5776 5776 5775 5773 5772 5772 5771 5770 5769 5768 5766 5764 5762 5760 5758 5756 5754 5752 5750 5747 5744 5741 5739 5736 5734 5731 5728 5726 5723 5721 5719 5716 5714 5711 5708 5705 5702 5700
5767 5767 5767 5767 5766 5766 5765 5764 5763 5762 5762 5761 5760 5759 5757 5756 5754 5753 5751 5749 5746 5744 5742 5740 5737 5735 5732 5729 5727 5724 5722 5719 5716 5714 5712 5710 5707 5705 5702 5699 5696 5693 5691
5757 5757 5757 5757 5756 5755 5755 5754 5753 5752 5751 5750 5749 5748 5747 5745 5744 5742 5740 5738 5736 5734 5732 5729 5727 5725 5722 5719 5717 5714 5712 5709 5707 5705 5703 5700 5698 5696 5693 5690 5688 5685 5682
5747 5747 5747 5746 5746 5745 5744 5743 5742 5741 5740 5739 5738 5737 5736 5734 5733 5731 5729 5727 5725 5723 5721 5719 5717 5714 5712 5709 5707 5705 5703 5700 5698 5695 5694 5692 5689 5687 5684 5681 5678 5675 5673
5738 5738 5737 5736 5736 5735 5733 5732 5731 5730 5729 5728 5727 5726 5725 5723 5722 5720 5718 5716 5715 5713 5711 5709 5707 5704 5702 5699 5697 5695 5693 5691 5688 5686 5684 5682 5680 5677 5675 5672 5669 5667 5664
5729 5728 5728 5727 5726 5725 5723 5722 5721 5720 5719 5718 5716 5715 5714 5712 5711 5709 5708 5706 5704 5702 5700 5698 5696 5694 5692 5690 5688 5686 5684 5682 5679 5677 5675 5673 5671 5668 5666 5663 5661 5658 5656